| time (UTC) | temp F | wind direction | speed knots | gust knots | rain 1hr in | rain 24hr in | rain mn in | humidity % | barometer mb |
| 20260505041422 | 67 | 58 | 1.7 | 1.7 | 0.00 | 0.00 | 0.00 | 65 | 1009.8 |
| 20260505040919 | 67 | 63 | 1.7 | 2.6 | 0.00 | 0.00 | 0.00 | 64 | 1010.1 |
| 20260505040416 | 67 | 50 | 0.9 | 1.7 | 0.00 | 0.00 | 0.00 | 65 | 1009.9 |
| 20260505035913 | 67 | 39 | 0.9 | 0.9 | 0.00 | 0.00 | 0.00 | 66 | 1009.8 |
| 20260505035409 | 67 | 20 | 1.7 | 1.7 | 0.00 | 0.00 | 0.00 | 65 | 1009.9 |
| 20260505034906 | 67 | 29 | 0.9 | 1.7 | 0.00 | 0.00 | 0.00 | 66 | 1009.9 |
| 20260505034403 | 67 | 55 | 1.7 | 2.6 | 0.00 | 0.00 | 0.00 | 65 | 1009.9 |
| 20260505033900 | 67 | 41 | 2.6 | 2.6 | 0.00 | 0.00 | 0.00 | 65 | 1009.7 |
| 20260505033356 | 67 | 37 | 0.9 | 0.9 | 0.00 | 0.00 | 0.00 | 67 | 1009.7 |
| 20260505032855 | 67 | 35 | 0.9 | 1.7 | 0.00 | 0.00 | 0.00 | 65 | 1010.0 |
| 20260505032351 | 66 | 37 | 0.9 | 1.7 | 0.00 | 0.00 | 0.00 | 67 | 1010.0 |
| 20260505031848 | 66 | 36 | 0.9 | 0.9 | 0.00 | 0.00 | 0.00 | 68 | 1009.7 |
| 20260505031345 | 66 | 41 | 0.9 | 1.7 | 0.00 | 0.00 | 0.00 | 67 | 1009.8 |
| 20260505030842 | 66 | 36 | 0.9 | 1.7 | 0.00 | 0.00 | 0.00 | 68 | 1009.8 |
| 20260505030338 | 66 | 36 | 0.0 | 0.9 | 0.00 | 0.00 | 0.00 | 68 | 1009.8 |
| 20260505025833 | 66 | 35 | 0.0 | 0.9 | 0.00 | 0.00 | 0.00 | 69 | 1009.5 |
| 20260505025331 | 67 | 35 | 0.0 | 0.9 | 0.00 | 0.00 | 0.00 | 67 | 1009.5 |
| 20260505024829 | 67 | 36 | 0.0 | 0.9 | 0.00 | 0.00 | 0.00 | 65 | 1009.5 |
| 20260505024327 | 67 | 35 | 0.9 | 1.7 | 0.00 | 0.00 | 0.00 | 65 | 1009.3 |
| 20260505023824 | 67 | 25 | 0.0 | 0.9 | 0.00 | 0.00 | 0.00 | 65 | 1009.3 |
| 20260505023321 | 67 | 35 | 0.9 | 0.9 | 0.00 | 0.00 | 0.00 | 65 | 1009.3 |
| 20260505022818 | 68 | 35 | 0.9 | 1.7 | 0.00 | 0.00 | 0.00 | 64 | 1009.2 |
| 20260505022315 | 68 | 34 | 0.0 | 0.9 | 0.00 | 0.00 | 0.00 | 65 | 1009.0 |
| 20260505021812 | 68 | 34 | 0.0 | 0.9 | 0.00 | 0.00 | 0.00 | 64 | 1009.2 |
| 20260505021309 | 68 | 33 | 0.0 | 0.9 | 0.00 | 0.00 | 0.00 | 64 | 1009.0 |
| 20260505020804 | 68 | 35 | 0.9 | 0.9 | 0.00 | 0.00 | 0.00 | 63 | 1008.8 |
| 20260505020300 | 68 | 33 | 0.9 | 0.9 | 0.00 | 0.00 | 0.00 | 63 | 1009.0 |
| 20260505015757 | 69 | 59 | 1.7 | 1.7 | 0.00 | 0.00 | 0.00 | 61 | 1008.8 |
| 20260505015254 | 68 | 337 | 0.9 | 1.7 | 0.00 | 0.00 | 0.00 | 62 | 1008.9 |
| 20260505014752 | 68 | 37 | 0.9 | 0.9 | 0.00 | 0.00 | 0.00 | 63 | 1008.9 |
| 20260505014249 | 69 | 38 | 0.9 | 1.7 | 0.00 | 0.00 | 0.00 | 61 | 1008.7 |
| 20260505013745 | 69 | 49 | 0.9 | 1.7 | 0.00 | 0.00 | 0.00 | 61 | 1008.7 |
| 20260505013243 | 69 | 32 | 0.9 | 0.9 | 0.00 | 0.00 | 0.00 | 60 | 1008.8 |
| 20260505012741 | 69 | 39 | 1.7 | 2.6 | 0.00 | 0.00 | 0.00 | 59 | 1008.7 |
| 20260505012238 | 69 | 77 | 1.7 | 2.6 | 0.00 | 0.00 | 0.00 | 59 | 1008.7 |
| 20260505011733 | 70 | 36 | 0.9 | 0.9 | 0.00 | 0.00 | 0.00 | 59 | 1008.6 |
| 20260505011231 | 69 | 27 | 0.0 | 1.7 | 0.00 | 0.00 | 0.00 | 59 | 1008.7 |
| 20260505010726 | 70 | 42 | 0.9 | 2.6 | 0.00 | 0.00 | 0.00 | 58 | 1008.4 |
| 20260505010223 | 70 | 25 | 0.0 | 0.9 | 0.00 | 0.00 | 0.00 | 58 | 1008.5 |
| 20260505005719 | 71 | 38 | 0.9 | 1.7 | 0.00 | 0.00 | 0.00 | 56 | 1008.5 |
| 20260505005216 | 71 | 32 | 0.9 | 2.6 | 0.00 | 0.00 | 0.00 | 55 | 1008.4 |
| 20260505004713 | 71 | 64 | 0.9 | 1.7 | 0.00 | 0.00 | 0.00 | 55 | 1008.6 |
| 20260505004210 | 71 | 66 | 1.7 | 2.6 | 0.00 | 0.00 | 0.00 | 53 | 1008.6 |
| 20260505003707 | 71 | 42 | 0.9 | 1.7 | 0.00 | 0.00 | 0.00 | 56 | 1008.6 |
| 20260505003205 | 71 | 14 | 0.9 | 2.6 | 0.00 | 0.00 | 0.00 | 54 | 1008.4 |
| 20260505002701 | 72 | 42 | 0.9 | 1.7 | 0.00 | 0.00 | 0.00 | 55 | 1008.6 |
| 20260505002159 | 72 | 26 | 0.0 | 1.7 | 0.00 | 0.00 | 0.00 | 53 | 1008.6 |
| 20260505001655 | 72 | 49 | 1.7 | 1.7 | 0.00 | 0.00 | 0.00 | 53 | 1008.6 |
| 20260505001153 | 72 | 58 | 0.9 | 1.7 | 0.00 | 0.00 | 0.00 | 52 | 1008.7 |
| 20260505000650 | 73 | 46 | 0.9 | 1.7 | 0.00 | 0.00 | 0.00 | 52 | 1008.5 |
| 20260505000148 | 73 | 34 | 0.9 | 1.7 | 0.00 | 0.00 | 0.00 | 52 | 1008.6 |
| 20260504235644 | 73 | 319 | 1.7 | 1.7 | 0.00 | 0.00 | 0.00 | 53 | 1008.8 |
| 20260504235140 | 73 | 51 | 0.9 | 1.7 | 0.00 | 0.00 | 0.00 | 52 | 1008.9 |
| 20260504234638 | 74 | 37 | 0.9 | 1.7 | 0.00 | 0.00 | 0.00 | 52 | 1009.0 |
| 20260504234135 | 74 | 79 | 0.9 | 2.6 | 0.00 | 0.00 | 0.00 | 50 | 1009.1 |
| 20260504233631 | 75 | 41 | 0.9 | 7.8 | 0.00 | 0.00 | 0.00 | 48 | 1009.0 |
| 20260504233127 | 75 | 147 | 3.5 | 3.5 | 0.00 | 0.00 | 0.00 | 47 | 1008.9 |
| 20260504232625 | 75 | 159 | 2.6 | 5.2 | 0.00 | 0.00 | 0.00 | 48 | 1008.8 |
| 20260504232121 | 75 | 50 | 0.9 | 2.6 | 0.00 | 0.00 | 0.00 | 53 | 1008.9 |
| 20260504231618 | 75 | 55 | 2.6 | 3.5 | 0.00 | 0.00 | 0.00 | 51 | 1008.9 |
| 20260504231114 | 74 | 82 | 1.7 | 2.6 | 0.00 | 0.00 | 0.00 | 56 | 1008.9 |
| 20260504230610 | 74 | 25 | 0.9 | 1.7 | 0.00 | 0.00 | 0.00 | 57 | 1009.0 |
| 20260504230109 | 73 | 142 | 2.6 | 2.6 | 0.00 | 0.00 | 0.00 | 56 | 1008.9 |
| 20260504225607 | 73 | 45 | 0.9 | 1.7 | 0.00 | 0.00 | 0.00 | 60 | 1009.2 |
| 20260504225103 | 73 | 33 | 0.0 | 0.9 | 0.00 | 0.00 | 0.00 | 59 | 1009.1 |
| 20260504224600 | 73 | 32 | 0.9 | 0.9 | 0.00 | 0.00 | 0.00 | 57 | 1009.2 |
| 20260504224057 | 73 | 28 | 0.0 | 0.9 | 0.00 | 0.00 | 0.00 | 56 | 1009.3 |
| 20260504223554 | 73 | 41 | 0.9 | 1.7 | 0.00 | 0.00 | 0.00 | 55 | 1009.3 |
| 20260504223050 | 74 | 53 | 0.9 | 1.7 | 0.00 | 0.00 | 0.00 | 55 | 1009.4 |
| 20260504222547 | 74 | 39 | 0.9 | 2.6 | 0.00 | 0.00 | 0.00 | 56 | 1009.7 |
| 20260504222044 | 74 | 31 | 1.7 | 1.7 | 0.00 | 0.00 | 0.00 | 54 | 1009.4 |
| 20260504221542 | 74 | 16 | 0.0 | 0.9 | 0.00 | 0.00 | 0.00 | 54 | 1009.3 |
| 20260504221038 | 74 | 34 | 0.9 | 1.7 | 0.00 | 0.00 | 0.00 | 53 | 1009.4 |
| 20260504220535 | 74 | 16 | 0.0 | 0.9 | 0.00 | 0.00 | 0.00 | 53 | 1009.3 |
| 20260504220032 | 74 | 74 | 1.7 | 1.7 | 0.00 | 0.00 | 0.00 | 53 | 1009.4 |
| 20260504215528 | 74 | 42 | 0.9 | 1.7 | 0.00 | 0.00 | 0.00 | 53 | 1009.8 |
| 20260504215026 | 74 | 32 | 0.9 | 2.6 | 0.00 | 0.00 | 0.00 | 53 | 1009.9 |
| 20260504214521 | 73 | 56 | 0.9 | 1.7 | 0.00 | 0.00 | 0.00 | 55 | 1009.9 |
| 20260504214018 | 73 | 67 | 1.7 | 2.6 | 0.00 | 0.00 | 0.00 | 54 | 1010.1 |
| 20260504213514 | 74 | 34 | 0.9 | 1.7 | 0.00 | 0.00 | 0.00 | 55 | 1010.0 |
| 20260504213012 | 74 | 54 | 0.9 | 2.6 | 0.00 | 0.00 | 0.00 | 54 | 1010.1 |
| 20260504212507 | 75 | 27 | 0.9 | 1.7 | 0.00 | 0.00 | 0.00 | 54 | 1010.3 |
| 20260504212005 | 74 | 48 | 1.7 | 2.6 | 0.00 | 0.00 | 0.00 | 53 | 1010.1 |
| 20260504211501 | 74 | 156 | 1.7 | 2.6 | 0.00 | 0.00 | 0.00 | 53 | 1010.1 |
| 20260504210959 | 74 | 37 | 2.6 | 5.2 | 0.00 | 0.00 | 0.00 | 53 | 1010.6 |
| 20260504210456 | 74 | 87 | 0.9 | 1.7 | 0.00 | 0.00 | 0.00 | 54 | 1010.6 |
| 20260504205952 | 73 | 214 | 3.5 | 6.1 | 0.00 | 0.00 | 0.00 | 53 | 1010.5 |
| 20260504205450 | 73 | 211 | 2.6 | 5.2 | 0.00 | 0.00 | 0.00 | 54 | 1010.5 |
| 20260504204948 | 73 | 54 | 2.6 | 5.2 | 0.00 | 0.00 | 0.00 | 53 | 1010.7 |
| 20260504204446 | 73 | 41 | 1.7 | 1.7 | 0.00 | 0.00 | 0.00 | 55 | 1010.8 |
| 20260504203945 | 73 | 107 | 1.7 | 6.1 | 0.00 | 0.00 | 0.00 | 53 | 1010.8 |
| 20260504203442 | 73 | 119 | 2.6 | 3.5 | 0.00 | 0.00 | 0.00 | 54 | 1010.8 |
| 20260504202938 | 73 | 13 | 1.7 | 3.5 | 0.00 | 0.00 | 0.00 | 56 | 1010.9 |
| 20260504202435 | 74 | 8 | 0.9 | 2.6 | 0.00 | 0.00 | 0.00 | 56 | 1010.9 |
| 20260504201932 | 75 | 17 | 0.9 | 0.9 | 0.00 | 0.00 | 0.00 | 56 | 1010.8 |
| 20260504201429 | 75 | 9 | 2.6 | 2.6 | 0.00 | 0.00 | 0.00 | 55 | 1010.7 |
| 20260504200927 | 74 | 160 | 2.6 | 5.2 | 0.00 | 0.00 | 0.00 | 56 | 1010.8 |
| 20260504200423 | 73 | 113 | 2.6 | 2.6 | 0.00 | 0.00 | 0.00 | 58 | 1010.8 |
| 20260504195920 | 73 | 41 | 0.9 | 2.6 | 0.00 | 0.00 | 0.00 | 60 | 1011.0 |
| 20260504195416 | 71 | 26 | 0.9 | 0.9 | 0.00 | 0.00 | 0.00 | 62 | 1011.1 |
| 20260504194912 | 71 | 39 | 3.5 | 6.1 | 0.00 | 0.00 | 0.00 | 60 | 1011.4 |
| 20260504194408 | 71 | 20 | 0.9 | 1.7 | 0.00 | 0.00 | 0.00 | 61 | 1011.6 |
| 20260504193904 | 70 | 28 | 1.7 | 1.7 | 0.00 | 0.00 | 0.00 | 63 | 1011.6 |
| 20260504193402 | 69 | 14 | 0.0 | 2.6 | 0.00 | 0.00 | 0.00 | 64 | 1011.3 |
| 20260504192900 | 69 | 131 | 1.7 | 2.6 | 0.00 | 0.00 | 0.00 | 63 | 1011.3 |
| 20260504192357 | 69 | 155 | 3.5 | 3.5 | 0.00 | 0.00 | 0.00 | 63 | 1011.9 |
| 20260504191856 | 68 | 28 | 0.9 | 0.9 | 0.00 | 0.00 | 0.00 | 66 | 1012.2 |
| 20260504191354 | 68 | 52 | 0.9 | 1.7 | 0.00 | 0.00 | 0.00 | 64 | 1011.8 |
| 20260504190849 | 68 | 12 | 0.0 | 1.7 | 0.00 | 0.00 | 0.00 | 69 | 1012.2 |
| 20260504190345 | 68 | 12 | 0.0 | 2.6 | 0.00 | 0.00 | 0.00 | 66 | 1012.3 |
| 20260504185842 | 68 | 18 | 0.9 | 3.5 | 0.00 | 0.00 | 0.00 | 66 | 1012.7 |
| 20260504185339 | 68 | 354 | 0.9 | 7.0 | 0.00 | 0.00 | 0.00 | 64 | 1012.3 |
| 20260504184835 | 68 | 35 | 1.7 | 3.5 | 0.00 | 0.00 | 0.00 | 62 | 1012.5 |
| 20260504184331 | 68 | 53 | 1.7 | 6.1 | 0.00 | 0.00 | 0.00 | 64 | 1012.3 |
| 20260504183826 | 68 | 25 | 1.7 | 2.6 | 0.00 | 0.00 | 0.00 | 61 | 1012.1 |
| 20260504183324 | 69 | 36 | 1.7 | 8.7 | 0.00 | 0.00 | 0.00 | 63 | 1012.1 |
| 20260504182822 | 69 | 92 | 2.6 | 5.2 | 0.00 | 0.00 | 0.00 | 60 | 1011.8 |
| 20260504182319 | 69 | 183 | 2.6 | 6.1 | 0.00 | 0.00 | 0.00 | 62 | 1011.8 |
| 20260504181816 | 70 | 99 | 0.9 | 1.7 | 0.00 | 0.00 | 0.00 | 62 | 1011.5 |
| 20260504181314 | 71 | 20 | 0.9 | 2.6 | 0.00 | 0.00 | 0.00 | 62 | 1011.6 |
| 20260504180812 | 70 | 49 | 2.6 | 6.1 | 0.00 | 0.00 | 0.00 | 60 | 1011.2 |
| 20260504180310 | 70 | 59 | 1.7 | 5.2 | 0.00 | 0.00 | 0.00 | 61 | 1011.3 |
| 20260504175808 | 70 | 117 | 2.6 | 2.6 | 0.00 | 0.00 | 0.00 | 64 | 1011.2 |
| 20260504175305 | 69 | 110 | 2.6 | 2.6 | 0.00 | 0.00 | 0.00 | 63 | 1011.3 |
| 20260504174803 | 69 | 149 | 4.3 | 5.2 | 0.00 | 0.00 | 0.00 | 63 | 1011.3 |
| 20260504174300 | 69 | 45 | 1.7 | 2.6 | 0.00 | 0.00 | 0.00 | 63 | 1011.6 |
| 20260504173756 | 69 | 79 | 0.9 | 1.7 | 0.00 | 0.00 | 0.00 | 63 | 1011.5 |
| 20260504173253 | 69 | 36 | 0.0 | 2.6 | 0.00 | 0.00 | 0.00 | 64 | 1011.8 |
| 20260504172750 | 69 | 56 | 0.9 | 1.7 | 0.00 | 0.00 | 0.00 | 62 | 1011.6 |
| 20260504172247 | 68 | 12 | 0.9 | 1.7 | 0.00 | 0.00 | 0.00 | 64 | 1011.2 |
| 20260504171743 | 68 | 36 | 0.9 | 1.7 | 0.00 | 0.00 | 0.00 | 65 | 1011.4 |
| 20260504171240 | 68 | 131 | 2.6 | 2.6 | 0.00 | 0.00 | 0.00 | 63 | 1011.4 |
| 20260504170737 | 68 | 30 | 0.9 | 2.6 | 0.00 | 0.00 | 0.00 | 65 | 1011.4 |
| 20260504170234 | 67 | 27 | 0.9 | 1.7 | 0.00 | 0.00 | 0.00 | 65 | 1011.9 |
| 20260504160153 | 66 | 344 | 2.6 | 3.5 | 0.00 | 0.00 | 0.00 | 64 | 1012.1 |
| 20260504151120 | 62 | 41 | 1.7 | 2.6 | 0.00 | 0.00 | 0.00 | 67 | 1012.7 |
| 20260504150618 | 62 | 27 | 0.9 | 1.7 | 0.00 | 0.00 | 0.00 | 69 | 1012.3 |
| 20260504150115 | 62 | 23 | 1.7 | 2.6 | 0.00 | 0.00 | 0.00 | 67 | 1012.2 |
| 20260504141043 | 61 | 25 | 0.9 | 3.5 | 0.00 | 0.00 | 0.00 | 68 | 1012.7 |
| 20260504140540 | 61 | 9 | 0.9 | 0.9 | 0.00 | 0.00 | 0.00 | 69 | 1012.7 |
| 20260504130504 | 56 | 67 | 2.6 | 2.6 | 0.00 | 0.00 | 0.00 | 72 | 1013.1 |
| 20260504110351 | 52 | 31 | 0.9 | 1.7 | 0.00 | 0.00 | 0.00 | 73 | 1012.8 |
| 20260504100309 | 48 | 25 | 0.0 | 0.9 | 0.00 | 0.00 | 0.00 | 79 | 1013.1 |
| 20260504081702 | 52 | 16 | 0.9 | 1.7 | 0.00 | 0.00 | 0.00 | 66 | 1013.7 |
| 20260504081158 | 53 | 70 | 1.7 | 1.7 | 0.00 | 0.00 | 0.00 | 67 | 1013.6 |
| 20260504080655 | 53 | 84 | 1.7 | 3.5 | 0.00 | 0.00 | 0.00 | 65 | 1013.7 |
| 20260504080152 | 53 | 68 | 0.9 | 1.7 | 0.00 | 0.00 | 0.00 | 66 | 1013.7 |
| 20260504070119 | 53 | 64 | 1.7 | 2.6 | 0.00 | 0.00 | 0.00 | 65 | 1014.3 |
| 20260504050508 | 51 | 19 | 0.0 | 0.9 | 0.00 | 0.00 | 0.00 | 71 | 1015.5 |
| 20260504050005 | 51 | 34 | 0.0 | 0.9 | 0.00 | 0.00 | 0.00 | 71 | 1015.5 |
| 20260504045500 | 51 | 34 | 0.0 | 0.9 | 0.00 | 0.00 | 0.00 | 70 | 1015.8 |
| 20260504044957 | 51 | 34 | 0.0 | 0.9 | 0.00 | 0.00 | 0.00 | 70 | 1015.8 |
| 20260504044454 | 51 | 34 | 0.9 | 0.9 | 0.00 | 0.00 | 0.00 | 70 | 1015.7 |
| 20260504043952 | 52 | 34 | 0.0 | 0.0 | 0.00 | 0.00 | 0.00 | 69 | 1015.7 |
| 20260504043449 | 52 | 34 | 0.0 | 0.0 | 0.00 | 0.00 | 0.00 | 68 | 1015.7 |
| 20260504042946 | 52 | 34 | 0.9 | 0.9 | 0.00 | 0.00 | 0.00 | 67 | 1015.8 |
| 20260504042442 | 53 | 34 | 0.0 | 0.9 | 0.00 | 0.00 | 0.00 | 68 | 1015.9 |
| 20260504041939 | 53 | 27 | 0.0 | 0.9 | 0.00 | 0.00 | 0.00 | 66 | 1015.7 |